Location: Hermaringen
(48.5952°N, 10.2585°E)
Time: 20:44:44
(UTC+00:00)

Aureole 3 Rocket - Pass Details

Date: 18 November 2025
Orbit: 398 x 1690 km, 82.5° (Epoch: 10 December)

Event Time Altitude Azimuth Distance (km) Brightness Sun altitude
Rises 16:55:24 0° 179° (S) 2,316 6.2 -13.0°
Reaches altitude 10° 16:57:22 10° 174° (S) 1,444 5.1 -13.3°
Maximum altitude 17:00:19 55° 96° (E) 499 2.2 -13.8°
Drops below altitude 10° 17:03:33 10° 17° (NNE) 1,579 4.9 -14.3°
Enters shadow 17:03:35 10° 17° (NNE) 1,595 4.9 -14.3°
